Regional Weather Roundup
Issued by NWS Green Bay, WI

Home | Current Version | Previous Version | Text Only | Print | Product List | Glossary On
Versions: 1 2 3 4 5 6 7 8 9 10 11 12 13 14 15 16 17 18 19 20 21 22 23 24 25 26 27 28 29 30 31 32 33 34 35 36 37 38 39 40 41 42 43 44 45 46 47 48 49 50
000
ASUS43 KGRB 012010
RWRGRB

NORTH-CENTRAL AND NORTHEAST WISCONSIN REGIONAL WEATHER ROUNDUP
NATIONAL WEATHER SERVICE GREEN BAY WI
300 PM CDT WED OCT 01 2014

WIZ005-009-010>012-018-019-012100-
NORTH CENTRAL WISCONSIN

CITY           SKY/WX    TMP DP  RH WIND       PRES   REMARKS
IRONWOOD       NOT AVBL
MANITOWISH WTR LGT RAIN  53  49  85 SE9       29.84F
ARBOR VITAE    LGT RAIN  57  52  82 SE7       29.86F
EAGLE RIVER    CLOUDY    56  46  67 SE10      29.88F
LAND O LAKES   PTSUNNY   57  47  70 S8        29.89S
RHINELANDER    CLOUDY    56  48  74 SE10      29.89F
PHILLIPS       CLOUDY    52  50  93 SE6       29.83F
ANTIGO         CLOUDY    56  50  80 SE15      29.90F
TOMAHAWK       RAIN      54  49  85 SE5       29.88F
MERRILL        LGT RAIN  57  52  84 SE6       29.87F
$$

WIZ013-073-012100-
NORTHEAST WISCONSIN

CITY           SKY/WX    TMP DP  RH WIND       PRES   REMARKS
IRON MOUNTAIN  CLOUDY    55  51  86 S10       29.93S
MARINETTE      NOT AVBL
OCONTO         CLOUDY    57  53  87 SE13G18   29.94F
$$

WIZ017-030-035>037-045-012100-
CENTRAL WISCONSIN

CITY           SKY/WX    TMP DP  RH WIND       PRES   REMARKS
MEDFORD        CLOUDY    53  50  87 SE7       29.86F
WAUSAU         LGT RAIN  60  51  72 SE7       29.87F
MOSINEE        LGT RAIN  59  54  82 SE7       29.89F
MARSHFIELD     CLOUDY    58  51  78 SE8       29.86F
WISC RAPIDS    CLOUDY    60  52  74 SE7       29.88F
STEVENS POINT  LGT RAIN  59  50  72 SE12      29.88F
WAUPACA        PTSUNNY   68  52  56 E15       29.89F
SHAWANO        PTSUNNY   64  52  63 S8        29.92F
CLINTONVILLE   PTSUNNY   63  50  63 SE12      29.91S
$$

WIZ038-039-048-051-012100-
FOX VALLEY

CITY           SKY/WX    TMP DP  RH WIND       PRES   REMARKS
NWS GREEN BAY  PTSUNNY   62  53  72 SE14      29.93F
APPLETON       PTSUNNY   63  52  67 SE14      29.92F
OSHKOSH        PTSUNNY   64  52  64 SE13G21   29.90F
FOND DU LAC    PTSUNNY   64  51  62 SE16      29.90F
$$

WIZ022-050-052-012100-
EAST CENTRAL WISCONSIN

CITY           SKY/WX    TMP DP  RH WIND       PRES   REMARKS
STURGEON BAY   NOT AVBL
MANITOWOC      NOT AVBL
SHEBOYGAN      CLOUDY    58  52  80 SE14G22   29.95F
$$

LMZ563-521-522-541>543-012100-
LAKESHORE

STATION/POSITION TIME  TEMP    WIND        PRES    VSBY  WAVE
                       AIR SEA DIR/SP/G                  HT/PER
                 (UTC) (F)     (DEG/KT/KT) (MB)    (MI)  (FT/S)
SHEBOYGAN LKSHOR 2000   55 56  140/ 19/ 22 1014.5F
KEWAUNEE LKSHORE 2000   55     150/ 14/ 19 1014.1F
NORTHPORT PIER   2000   56     150/ 11/ 16 1015.2F
N MID LAKE BUOY  2000   55 58  170/  8/ 10 1015.5F         1/ 3
CHAMBERS ISLAND  2000   58     120/  8/ 13 1014.9S
MENOMINEE LKSHOR 2000   56     160/ 13/ 18 1015.3R
$$


USA.gov is the U.S. government's official web portal to all federal, state and local government web resources and services.